Time,TemperatureF,DewpointF,PressureIn,WindDirection,WindDirectionDegrees,WindSpeedMPH,WindSpeedGustMPH,Humidity,HourlyPrecipIn,Conditions,Clouds,dailyrainin,SolarRadiationWatts/m^2,SoftwareType,DateUTC
2013-07-30 00:03:00,59.0,52.0,-100.00,NNW,347,3.0,7.0,79,0.00,,,0.00,0.000000,,2013-07-30 06:03:00,
2013-07-30 00:12:00,59.0,52.0,-100.00,NNW,347,3.0,7.0,79,0.00,,,0.00,0.000000,,2013-07-30 06:12:00,
2013-07-30 00:22:00,59.0,52.0,-100.00,NNW,347,3.0,7.0,79,0.00,,,0.00,0.000000,,2013-07-30 06:22:00,
2013-07-30 00:43:00,58.0,52.0,-100.00,WNW,302,1.0,5.0,80,0.00,,,0.00,0.000000,,2013-07-30 06:43:00,
2013-07-30 00:53:00,58.0,52.0,-100.00,WNW,302,1.0,5.0,80,0.00,,,0.00,0.000000,,2013-07-30 06:53:00,
2013-07-30 01:02:00,58.0,52.0,-100.00,WNW,302,1.0,5.0,80,0.00,,,0.00,0.000000,,2013-07-30 07:02:00,
2013-07-30 01:13:00,58.0,52.0,-100.00,WNW,302,1.0,5.0,80,0.00,,,0.00,0.000000,,2013-07-30 07:13:00,
2013-07-30 01:23:00,58.0,52.0,-100.00,WNW,302,1.0,5.0,80,0.00,,,0.00,0.000000,,2013-07-30 07:23:00,
2013-07-30 01:53:00,56.0,54.0,-100.00,NW,322,1.0,8.0,93,0.02,,,0.02,0.000000,,2013-07-30 07:53:00,
2013-07-30 02:03:00,56.0,54.0,-100.00,NW,322,1.0,8.0,93,0.02,,,0.02,0.000000,,2013-07-30 08:03:00,
2013-07-30 02:12:00,56.0,54.0,-100.00,NW,322,1.0,8.0,93,0.02,,,0.02,0.000000,,2013-07-30 08:12:00,
2013-07-30 02:22:00,56.0,54.0,-100.00,NW,322,1.0,8.0,93,0.02,,,0.02,0.000000,,2013-07-30 08:22:00,
2013-07-30 02:43:00,55.0,54.0,-100.00,WNW,285,2.0,7.0,95,0.01,,,0.03,0.000000,,2013-07-30 08:43:00,
2013-07-30 02:53:00,55.0,54.0,-100.00,WNW,285,2.0,7.0,95,0.01,,,0.03,0.000000,,2013-07-30 08:53:00,
2013-07-30 03:03:00,55.0,54.0,-100.00,WNW,285,2.0,7.0,95,0.01,,,0.03,0.000000,,2013-07-30 09:03:00,
2013-07-30 03:13:00,55.0,54.0,-100.00,WNW,285,2.0,7.0,95,0.01,,,0.03,0.000000,,2013-07-30 09:13:00,
2013-07-30 03:22:00,55.0,54.0,-100.00,WNW,285,2.0,7.0,95,0.01,,,0.03,0.000000,,2013-07-30 09:22:00,
2013-07-30 03:43:00,56.0,51.0,-100.00,North,350,3.0,4.0,84,0.00,,,0.03,0.000000,,2013-07-30 09:43:00,
2013-07-30 03:53:00,56.0,51.0,-100.00,North,350,3.0,4.0,84,0.00,,,0.03,0.000000,,2013-07-30 09:53:00,
2013-07-30 04:03:00,56.0,51.0,-100.00,North,350,3.0,4.0,84,0.00,,,0.03,0.000000,,2013-07-30 10:03:00,
2013-07-30 04:12:00,56.0,51.0,-100.00,North,350,3.0,4.0,84,0.00,,,0.03,0.000000,,2013-07-30 10:12:00,
2013-07-30 04:22:00,56.0,51.0,-100.00,North,350,3.0,4.0,84,0.00,,,0.03,0.000000,,2013-07-30 10:22:00,
2013-07-30 04:44:00,57.0,50.0,-100.00,NNE,17,2.0,5.0,78,0.00,,,0.03,0.000000,,2013-07-30 10:44:00,
2013-07-30 04:52:00,57.0,50.0,-100.00,NNE,17,2.0,5.0,78,0.00,,,0.03,0.000000,,2013-07-30 10:52:00,
2013-07-30 05:02:00,57.0,50.0,-100.00,NNE,17,2.0,5.0,78,0.00,,,0.03,0.000000,,2013-07-30 11:02:00,
2013-07-30 05:11:00,57.0,50.0,-100.00,NNE,17,2.0,5.0,78,0.00,,,0.03,0.000000,,2013-07-30 11:11:00,
2013-07-30 05:22:00,57.0,50.0,-100.00,NNE,17,2.0,5.0,78,0.00,,,0.03,0.000000,,2013-07-30 11:22:00,
2013-07-30 05:43:00,57.0,51.0,-100.00,East,93,1.0,4.0,81,0.00,,,0.03,0.000000,,2013-07-30 11:43:00,
2013-07-30 05:53:00,57.0,51.0,-100.00,East,93,1.0,4.0,81,0.00,,,0.03,0.000000,,2013-07-30 11:53:00,
2013-07-30 06:12:00,57.0,51.0,-100.00,East,93,1.0,4.0,81,0.00,,,0.03,0.000000,,2013-07-30 12:12:00,
2013-07-30 06:22:00,57.0,51.0,-100.00,East,93,1.0,4.0,81,0.00,,,0.03,0.000000,,2013-07-30 12:22:00,
2013-07-30 06:42:00,58.0,51.0,-100.00,ESE,112,1.0,2.0,77,0.00,,,0.03,6.000000,,2013-07-30 12:42:00,
2013-07-30 06:53:00,58.0,51.0,-100.00,ESE,112,1.0,2.0,77,0.00,,,0.03,6.000000,,2013-07-30 12:53:00,
2013-07-30 07:02:00,58.0,51.0,-100.00,ESE,112,1.0,2.0,77,0.00,,,0.03,6.000000,,2013-07-30 13:02:00,
2013-07-30 07:12:00,58.0,51.0,-100.00,ESE,112,1.0,2.0,77,0.00,,,0.03,6.000000,,2013-07-30 13:12:00,
2013-07-30 07:22:00,58.0,51.0,-100.00,ESE,112,1.0,2.0,77,0.00,,,0.03,6.000000,,2013-07-30 13:22:00,
2013-07-30 07:52:00,58.0,53.0,-100.00,East,92,0.0,3.0,82,0.00,,,0.03,45.000000,,2013-07-30 13:52:00,
2013-07-30 08:02:00,58.0,53.0,-100.00,East,92,0.0,3.0,82,0.00,,,0.03,45.000000,,2013-07-30 14:02:00,
2013-07-30 08:12:00,58.0,53.0,-100.00,East,92,0.0,3.0,82,0.00,,,0.03,45.000000,,2013-07-30 14:12:00,
2013-07-30 08:22:00,58.0,53.0,-100.00,East,92,0.0,3.0,82,0.00,,,0.03,45.000000,,2013-07-30 14:22:00,
2013-07-30 08:43:00,64.0,54.0,-100.00,SSE,166,3.0,5.0,69,0.00,,,0.03,224.000000,,2013-07-30 14:43:00,
2013-07-30 08:53:00,64.0,54.0,-100.00,SSE,166,3.0,5.0,69,0.00,,,0.03,224.000000,,2013-07-30 14:53:00,
2013-07-30 09:02:00,64.0,54.0,-100.00,SSE,166,3.0,5.0,69,0.00,,,0.03,224.000000,,2013-07-30 15:02:00,
2013-07-30 09:12:00,64.0,54.0,-100.00,SSE,166,3.0,5.0,69,0.00,,,0.03,224.000000,,2013-07-30 15:12:00,
2013-07-30 09:23:00,64.0,54.0,-100.00,SSE,166,3.0,5.0,69,0.00,,,0.03,224.000000,,2013-07-30 15:23:00,
2013-07-30 09:53:00,67.0,54.0,-100.00,SW,218,6.0,13.0,64,0.00,,,0.03,547.000000,,2013-07-30 15:53:00,
2013-07-30 10:02:00,67.0,54.0,-100.00,SW,218,6.0,13.0,64,0.00,,,0.03,547.000000,,2013-07-30 16:02:00,
2013-07-30 10:12:00,67.0,54.0,-100.00,SW,218,6.0,13.0,64,0.00,,,0.03,547.000000,,2013-07-30 16:12:00,
2013-07-30 10:22:00,67.0,54.0,-100.00,SW,218,6.0,13.0,64,0.00,,,0.03,547.000000,,2013-07-30 16:22:00,
2013-07-30 10:44:00,73.0,55.0,-100.00,SW,234,5.0,15.0,53,0.00,,,0.03,739.000000,,2013-07-30 16:44:00,
2013-07-30 10:52:00,73.0,55.0,-100.00,SW,234,5.0,15.0,53,0.00,,,0.03,739.000000,,2013-07-30 16:52:00,
2013-07-30 11:02:00,73.0,55.0,-100.00,SW,234,5.0,15.0,53,0.00,,,0.03,739.000000,,2013-07-30 17:02:00,
2013-07-30 11:12:00,73.0,55.0,-100.00,SW,234,5.0,15.0,53,0.00,,,0.03,739.000000,,2013-07-30 17:12:00,
2013-07-30 11:22:00,73.0,55.0,-100.00,SW,234,5.0,15.0,53,0.00,,,0.03,739.000000,,2013-07-30 17:22:00,
2013-07-30 11:43:00,73.0,52.0,-100.00,WSW,237,6.0,14.0,48,0.00,,,-99.99,894.000000,,2013-07-30 17:43:00,
2013-07-30 11:54:00,73.0,52.0,-100.00,WSW,237,6.0,14.0,48,0.00,,,-99.99,894.000000,,2013-07-30 17:54:00,
2013-07-30 12:03:00,73.0,52.0,-100.00,WSW,237,6.0,14.0,48,0.00,,,-99.99,894.000000,,2013-07-30 18:03:00,
2013-07-30 12:12:00,73.0,52.0,-100.00,WSW,237,6.0,14.0,48,0.00,,,-99.99,894.000000,,2013-07-30 18:12:00,
2013-07-30 12:23:00,73.0,52.0,-100.00,WSW,237,6.0,14.0,48,0.00,,,-99.99,894.000000,,2013-07-30 18:23:00,
2013-07-30 12:43:00,77.0,52.0,-100.00,WSW,247,5.0,12.0,42,0.00,,,0.03,994.000000,,2013-07-30 18:43:00,
2013-07-30 12:52:00,77.0,52.0,-100.00,WSW,247,5.0,12.0,42,0.00,,,0.03,994.000000,,2013-07-30 18:52:00,
2013-07-30 13:02:00,77.0,52.0,-100.00,WSW,247,5.0,12.0,42,0.00,,,0.03,994.000000,,2013-07-30 19:02:00,
2013-07-30 13:12:00,77.0,52.0,-100.00,WSW,247,5.0,12.0,42,0.00,,,0.03,994.000000,,2013-07-30 19:12:00,
2013-07-30 13:22:00,77.0,52.0,-100.00,WSW,247,5.0,12.0,42,0.00,,,0.03,994.000000,,2013-07-30 19:22:00,
2013-07-30 13:52:00,78.0,52.0,-100.00,SSW,202,6.0,14.0,40,0.00,,,0.03,1036.000000,,2013-07-30 19:52:00,
2013-07-30 14:02:00,78.0,52.0,-100.00,SSW,202,6.0,14.0,40,0.00,,,0.03,1036.000000,,2013-07-30 20:02:00,
2013-07-30 14:12:00,78.0,52.0,-100.00,SSW,202,6.0,14.0,40,0.00,,,0.03,1036.000000,,2013-07-30 20:12:00,
2013-07-30 14:22:00,78.0,52.0,-100.00,SSW,202,6.0,14.0,40,0.00,,,0.03,1036.000000,,2013-07-30 20:22:00,
2013-07-30 14:43:00,81.0,49.0,-100.00,SSW,205,4.0,10.0,33,0.00,,,0.03,1018.000000,,2013-07-30 20:43:00,
2013-07-30 14:52:00,81.0,49.0,-100.00,SSW,205,4.0,10.0,33,0.00,,,0.03,1018.000000,,2013-07-30 20:52:00,
2013-07-30 15:02:00,81.0,49.0,-100.00,SSW,205,4.0,10.0,33,0.00,,,0.03,1018.000000,,2013-07-30 21:02:00,
2013-07-30 15:12:00,81.0,49.0,-100.00,SSW,205,4.0,10.0,33,0.00,,,0.03,1018.000000,,2013-07-30 21:12:00,
2013-07-30 15:22:00,81.0,49.0,-100.00,SSW,205,4.0,10.0,33,0.00,,,0.03,1018.000000,,2013-07-30 21:22:00,
2013-07-30 15:42:00,83.0,44.0,-100.00,SSW,196,5.0,11.0,25,0.00,,,0.03,985.000000,,2013-07-30 21:42:00,
2013-07-30 15:53:00,83.0,44.0,-100.00,SSW,196,5.0,11.0,25,0.00,,,0.03,985.000000,,2013-07-30 21:53:00,
2013-07-30 16:02:00,83.0,44.0,-100.00,SSW,196,5.0,11.0,25,0.00,,,0.03,985.000000,,2013-07-30 22:02:00,
2013-07-30 16:12:00,83.0,44.0,-100.00,SSW,196,5.0,11.0,25,0.00,,,0.03,985.000000,,2013-07-30 22:12:00,
2013-07-30 16:22:00,83.0,44.0,-100.00,SSW,196,5.0,11.0,25,0.00,,,0.03,985.000000,,2013-07-30 22:22:00,
2013-07-30 16:53:00,82.0,43.0,-100.00,WSW,242,4.0,10.0,25,0.00,,,0.03,809.000000,,2013-07-30 22:53:00,
2013-07-30 17:02:00,82.0,43.0,-100.00,WSW,242,4.0,10.0,25,0.00,,,0.03,809.000000,,2013-07-30 23:02:00,
2013-07-30 17:12:00,82.0,43.0,-100.00,WSW,242,4.0,10.0,25,0.00,,,0.03,809.000000,,2013-07-30 23:12:00,
2013-07-30 17:22:00,82.0,43.0,-100.00,WSW,242,4.0,10.0,25,0.00,,,0.03,809.000000,,2013-07-30 23:22:00,
2013-07-30 17:42:00,74.0,40.0,-100.00,WSW,255,4.0,7.0,29,0.00,,,0.03,200.000000,,2013-07-30 23:42:00,
2013-07-30 17:53:00,74.0,40.0,-100.00,WSW,255,4.0,7.0,29,0.00,,,0.03,200.000000,,2013-07-30 23:53:00,
2013-07-30 18:02:00,74.0,40.0,-100.00,WSW,255,4.0,7.0,29,0.00,,,0.03,200.000000,,2013-07-31 00:02:00,
2013-07-30 18:53:00,64.0,52.0,-100.00,North,349,3.0,8.0,66,0.01,,,0.04,25.000000,,2013-07-31 00:53:00,
2013-07-30 19:02:00,64.0,52.0,-100.00,North,349,3.0,8.0,66,0.01,,,0.04,25.000000,,2013-07-31 01:02:00,
2013-07-30 19:12:00,64.0,52.0,-100.00,North,349,3.0,8.0,66,0.01,,,0.04,25.000000,,2013-07-31 01:12:00,
2013-07-30 19:22:00,64.0,52.0,-100.00,North,349,3.0,8.0,66,0.01,,,0.04,25.000000,,2013-07-31 01:22:00,
2013-07-30 19:43:00,65.0,46.0,-100.00,SW,217,1.0,6.0,51,0.00,,,0.04,96.000000,,2013-07-31 01:43:00,
2013-07-30 19:52:00,65.0,46.0,-100.00,SW,217,1.0,6.0,51,0.00,,,0.04,96.000000,,2013-07-31 01:52:00,
2013-07-30 20:02:00,65.0,46.0,-100.00,SW,217,1.0,6.0,51,0.00,,,0.04,96.000000,,2013-07-31 02:02:00,
2013-07-30 20:12:00,65.0,46.0,-100.00,SW,217,1.0,6.0,51,0.00,,,0.04,96.000000,,2013-07-31 02:12:00,
2013-07-30 20:22:00,65.0,46.0,-100.00,SW,217,1.0,6.0,51,0.00,,,0.04,96.000000,,2013-07-31 02:22:00,
2013-07-30 20:43:00,62.0,45.0,-100.00,NE,46,2.0,4.0,53,0.00,,,0.04,16.000000,,2013-07-31 02:43:00,
2013-07-30 20:52:00,62.0,45.0,-100.00,NE,46,2.0,4.0,53,0.00,,,0.04,16.000000,,2013-07-31 02:52:00,
2013-07-30 21:02:00,62.0,45.0,-100.00,NE,46,2.0,4.0,53,0.00,,,0.04,16.000000,,2013-07-31 03:02:00,
2013-07-30 21:42:00,59.0,56.0,-100.00,ENE,71,4.0,9.0,89,0.00,,,0.04,0.000000,,2013-07-31 03:42:00,
2013-07-30 21:52:00,59.0,56.0,-100.00,ENE,71,4.0,9.0,89,0.00,,,0.04,0.000000,,2013-07-31 03:52:00,
2013-07-30 22:02:00,59.0,56.0,-100.00,ENE,71,4.0,9.0,89,0.00,,,0.04,0.000000,,2013-07-31 04:02:00,
2013-07-30 22:12:00,59.0,56.0,-100.00,ENE,71,4.0,9.0,89,0.00,,,0.04,0.000000,,2013-07-31 04:12:00,
2013-07-30 22:22:00,59.0,56.0,-100.00,ENE,71,4.0,9.0,89,0.00,,,0.04,0.000000,,2013-07-31 04:22:00,
2013-07-30 22:42:00,58.0,56.0,-100.00,NE,35,3.0,7.0,92,0.00,,,0.04,0.000000,,2013-07-31 04:42:00,
2013-07-30 22:52:00,58.0,56.0,-100.00,NE,35,3.0,7.0,92,0.00,,,0.04,0.000000,,2013-07-31 04:52:00,
2013-07-30 23:02:00,58.0,56.0,-100.00,NE,35,3.0,7.0,92,0.00,,,0.04,0.000000,,2013-07-31 05:02:00,
2013-07-30 23:11:00,58.0,56.0,-100.00,NE,35,3.0,7.0,92,0.00,,,0.04,0.000000,,2013-07-31 05:11:00,
2013-07-30 23:22:00,58.0,56.0,-100.00,NE,35,3.0,7.0,92,0.00,,,0.04,0.000000,,2013-07-31 05:22:00,
2013-07-30 23:43:00,58.0,57.0,-100.00,ENE,59,2.0,5.0,95,0.00,,,0.04,0.000000,,2013-07-31 05:43:00,
2013-07-30 23:52:00,58.0,57.0,-100.00,ENE,59,2.0,5.0,95,0.00,,,0.04,0.000000,,2013-07-31 05:52:00,